Location: Greenwich
(51.4790°N, 0.0090°E)
Time: 12:55:23
(UTC+01:00)

S-56A Canister/Altair - Visible Passes

Search period start: 17 July 2025 00:00
Search period end: 27 July 2025 00:00
Orbit: 633 x 2485 km, 38.9° (Epoch: 16 July)

Date Brightness Start Highest point End Pass type
(mag) Time Alt. Az. Time Alt. Az. Time Alt. Az.
17 Jul 9.0 23:06:03 10° WSW 23:10:22 24° S 23:13:16 18° SSE visible
18 Jul 10.0 01:09:37 10° SW 01:10:27 12° SW 01:10:27 12° SW visible
18 Jul 9.0 22:31:51 10° SW 22:35:52 23° S 22:39:42 14° SE visible
19 Jul 9.8 00:35:09 10° SW 00:36:55 14° SW 00:36:55 14° SW visible
19 Jul 8.9 21:57:39 10° SW 22:01:23 21° S 22:05:57 10° SE visible
20 Jul 9.6 00:00:44 10° SW 00:03:29 15° SSW 00:03:29 15° SSW visible
20 Jul 9.4 23:26:22 10° SW 23:29:38 16° SSW 23:30:08 16° S visible
21 Jul 9.4 22:52:02 10° SW 22:55:07 16° SSW 22:56:50 14° S visible
22 Jul 9.3 22:17:41 10° SW 22:20:39 16° SSW 22:23:35 11° SSE visible
23 Jul 9.2 21:43:20 10° SW 21:46:11 16° S 21:49:22 10° SSE visible
